Location: Pic du Midi - T1M
(42.9366°N, 0.1426°E)
Time: 18:24:11
(UTC+01:00)

Nauka - Pass Details

Date: 30 September 2021
Orbit: 417 x 423 km, 51.6° (Epoch: 24 October)

Event Time Altitude Azimuth Distance (km) Brightness Sun altitude
Rises 20:01:42 0° 305° (NW) 2,359 ? -15.3°
Reaches altitude 10° 20:03:57 10° 316° (NW) 1,494 ? -15.7°
Maximum altitude 20:06:59 31° 21° (NNE) 757 ? -16.3°
Enters shadow 20:07:44 28° 48° (NE) 822 ? -16.4°
